Time,TemperatureF,DewpointF,PressureIn,WindDirection,WindDirectionDegrees,WindSpeedMPH,WindSpeedGustMPH,Humidity,HourlyPrecipIn,Conditions,Clouds,dailyrainin,SoftwareType,DateUTC
2013-08-19 00:00:00,63.7,57.8,30.09,SSE,165,1.4,14.0,81,0.00,,,0.00,VWS V14.01,2013-08-19 04:00:00,
2013-08-19 00:01:00,63.6,58.0,30.09,South,169,1.4,2.8,82,0.00,,,0.00,VWS V14.01,2013-08-19 04:01:00,
2013-08-19 00:06:00,63.4,57.8,30.09,ESE,116,1.4,2.8,82,0.00,,,0.00,VWS V14.01,2013-08-19 04:06:00,
2013-08-19 00:11:00,63.3,58.1,30.09,East,98,0.0,2.8,83,0.00,,,0.00,VWS V14.01,2013-08-19 04:11:00,
2013-08-19 00:16:00,62.9,58.0,30.09,ESE,114,2.8,4.2,84,0.00,,,0.00,VWS V14.01,2013-08-19 04:16:00,
2013-08-19 00:21:00,62.6,57.7,30.10,ESE,114,7.0,7.0,84,0.00,,,0.00,VWS V14.01,2013-08-19 04:21:00,
2013-08-19 00:26:00,62.5,57.9,30.10,ESE,103,4.2,8.4,85,0.00,,,0.00,VWS V14.01,2013-08-19 04:26:00,
2013-08-19 00:31:00,62.4,58.2,30.10,SSW,212,1.4,8.4,86,0.00,,,0.00,VWS V14.01,2013-08-19 04:31:00,
2013-08-19 00:36:00,62.3,58.1,30.10,South,179,1.4,8.4,86,0.00,,,0.00,VWS V14.01,2013-08-19 04:36:00,
2013-08-19 00:41:00,62.0,58.4,30.10,SSE,162,1.4,8.4,88,0.00,,,0.00,VWS V14.01,2013-08-19 04:41:00,
2013-08-19 00:46:00,61.6,57.7,30.10,South,191,0.0,8.4,87,0.00,,,0.00,VWS V14.01,2013-08-19 04:46:00,
2013-08-19 00:51:00,61.2,57.6,30.10,SSW,203,0.0,8.4,88,0.00,,,0.00,VWS V14.01,2013-08-19 04:51:00,
2013-08-19 00:56:00,60.9,57.6,30.10,South,171,1.4,8.4,89,0.00,,,0.00,VWS V14.01,2013-08-19 04:56:00,
2013-08-19 01:00:00,63.7,57.8,30.09,SSE,165,1.4,14.0,81,0.00,,,0.00,VWS V14.01,2013-08-19 05:00:00,
2013-08-19 01:01:00,60.7,57.8,30.10,South,169,0.0,8.4,90,0.00,,,0.00,VWS V14.01,2013-08-19 05:01:00,
2013-08-19 01:06:00,60.6,57.7,30.10,SSE,155,0.0,8.4,90,0.00,,,0.00,VWS V14.01,2013-08-19 05:06:00,
2013-08-19 01:11:00,60.6,57.3,30.10,SE,133,1.4,8.4,89,0.00,,,0.00,VWS V14.01,2013-08-19 05:11:00,
2013-08-19 01:16:00,60.7,57.4,30.10,SSE,147,1.4,8.4,89,0.00,,,0.00,VWS V14.01,2013-08-19 05:16:00,
2013-08-19 01:21:00,60.7,57.8,30.10,SSW,201,0.0,8.4,90,0.00,,,0.00,VWS V14.01,2013-08-19 05:21:00,
2013-08-19 01:26:00,60.5,57.6,30.10,SSW,201,0.0,8.4,90,0.00,,,0.00,VWS V14.01,2013-08-19 05:26:00,
2013-08-19 01:31:00,60.5,57.9,30.10,South,173,1.4,8.4,91,0.00,,,0.00,VWS V14.01,2013-08-19 05:31:00,
2013-08-19 01:36:00,60.7,58.1,30.10,SSE,163,2.8,8.4,91,0.00,,,0.00,VWS V14.01,2013-08-19 05:36:00,
2013-08-19 01:41:00,60.9,58.3,30.10,SSE,162,2.8,8.4,91,0.00,,,0.00,VWS V14.01,2013-08-19 05:41:00,
2013-08-19 01:46:00,60.9,58.3,30.09,SSE,157,1.4,8.4,91,0.00,,,0.00,VWS V14.01,2013-08-19 05:46:00,
2013-08-19 01:51:00,60.8,58.2,30.09,South,177,1.4,8.4,91,0.00,,,0.00,VWS V14.01,2013-08-19 05:51:00,
2013-08-19 01:56:00,60.7,58.1,30.09,SSE,159,0.0,8.4,91,0.00,,,0.00,VWS V14.01,2013-08-19 05:56:00,
2013-08-19 02:00:00,60.5,57.9,30.09,SSE,161,0.0,8.4,91,0.00,,,0.00,VWS V14.01,2013-08-19 06:00:00,
2013-08-19 02:01:00,60.4,57.8,30.09,SSE,160,0.0,1.4,91,0.00,,,0.00,VWS V14.01,2013-08-19 06:01:00,
2013-08-19 02:06:00,60.3,57.7,30.09,South,172,0.0,1.4,91,0.00,,,0.00,VWS V14.01,2013-08-19 06:06:00,
2013-08-19 02:11:00,60.2,57.6,30.09,SE,129,0.0,5.6,91,0.00,,,0.00,VWS V14.01,2013-08-19 06:11:00,
2013-08-19 02:16:00,60.2,57.6,30.08,WSW,242,1.4,5.6,91,0.00,,,0.00,VWS V14.01,2013-08-19 06:16:00,
2013-08-19 02:21:00,60.3,57.7,30.08,ESE,106,0.0,5.6,91,0.00,,,0.00,VWS V14.01,2013-08-19 06:21:00,
2013-08-19 02:26:00,60.3,57.7,30.08,ESE,119,1.4,5.6,91,0.00,,,0.00,VWS V14.01,2013-08-19 06:26:00,
2013-08-19 02:31:00,60.4,57.8,30.08,ESE,118,0.0,5.6,91,0.00,,,0.00,VWS V14.01,2013-08-19 06:31:00,
2013-08-19 02:36:00,60.3,57.7,30.08,ESE,122,0.0,5.6,91,0.00,,,0.00,VWS V14.01,2013-08-19 06:36:00,
2013-08-19 02:41:00,60.5,58.2,30.08,ESE,108,1.4,5.6,92,0.00,,,0.00,VWS V14.01,2013-08-19 06:41:00,
2013-08-19 02:46:00,60.6,58.0,30.08,East,95,1.4,5.6,91,0.00,,,0.00,VWS V14.01,2013-08-19 06:46:00,
2013-08-19 02:51:00,60.6,58.0,30.08,SSE,150,0.0,5.6,91,0.00,,,0.00,VWS V14.01,2013-08-19 06:51:00,
2013-08-19 02:56:00,60.5,58.2,30.08,SE,134,0.0,5.6,92,0.00,,,0.00,VWS V14.01,2013-08-19 06:56:00,
2013-08-19 03:00:00,60.5,57.9,30.09,SSE,161,0.0,8.4,91,0.00,,,0.00,VWS V14.01,2013-08-19 07:00:00,
2013-08-19 03:01:00,60.4,58.1,30.08,SE,134,0.0,5.6,92,0.00,,,0.00,VWS V14.01,2013-08-19 07:01:00,
2013-08-19 03:06:00,60.3,58.0,30.08,SE,133,0.0,5.6,92,0.00,,,0.00,VWS V14.01,2013-08-19 07:06:00,
2013-08-19 03:11:00,60.1,57.8,30.08,SE,133,0.0,5.6,92,0.00,,,0.00,VWS V14.01,2013-08-19 07:11:00,
2013-08-19 03:16:00,60.2,58.2,30.08,SE,133,0.0,5.6,93,0.00,,,0.00,VWS V14.01,2013-08-19 07:16:00,
2013-08-19 03:21:00,60.3,58.3,30.08,SE,132,0.0,5.6,93,0.00,,,0.00,VWS V14.01,2013-08-19 07:21:00,
2013-08-19 03:26:00,60.5,58.5,30.08,SE,131,1.4,5.6,93,0.00,,,0.00,VWS V14.01,2013-08-19 07:26:00,
2013-08-19 03:31:00,60.6,58.3,30.08,ESE,111,1.4,5.6,92,0.00,,,0.00,VWS V14.01,2013-08-19 07:31:00,
2013-08-19 03:36:00,60.7,58.4,30.08,ESE,117,2.8,5.6,92,0.00,,,0.00,VWS V14.01,2013-08-19 07:36:00,
2013-08-19 03:41:00,60.7,58.4,30.08,SE,129,0.0,5.6,92,0.00,,,0.00,VWS V14.01,2013-08-19 07:41:00,
2013-08-19 03:46:00,60.8,58.5,30.08,ESE,105,1.4,5.6,92,0.00,,,0.00,VWS V14.01,2013-08-19 07:46:00,
2013-08-19 03:51:00,60.8,58.5,30.07,SSE,150,0.0,5.6,92,0.00,,,0.00,VWS V14.01,2013-08-19 07:51:00,
2013-08-19 03:56:00,60.7,58.7,30.07,SE,145,0.0,5.6,93,0.00,,,0.00,VWS V14.01,2013-08-19 07:56:00,
2013-08-19 04:00:00,60.5,58.5,30.07,SSE,160,1.4,5.6,93,0.00,,,0.00,VWS V14.01,2013-08-19 08:00:00,
2013-08-19 04:01:00,60.6,58.6,30.07,SSE,148,0.0,2.8,93,0.00,,,0.00,VWS V14.01,2013-08-19 08:01:00,
2013-08-19 04:06:00,60.4,58.7,30.07,SSE,166,0.0,2.8,94,0.00,,,0.00,VWS V14.01,2013-08-19 08:06:00,
2013-08-19 04:11:00,60.3,58.6,30.07,SSE,148,0.0,2.8,94,0.00,,,0.00,VWS V14.01,2013-08-19 08:11:00,
2013-08-19 04:16:00,60.1,58.4,30.07,SSE,158,0.0,2.8,94,0.00,,,0.00,VWS V14.01,2013-08-19 08:16:00,
2013-08-19 04:20:00,59.9,58.2,30.06,SSE,162,0.0,2.8,94,0.00,,,0.00,VWS V14.01,2013-08-19 08:20:00,
2013-08-19 04:25:00,59.8,58.4,30.06,SSE,162,0.0,2.8,95,0.00,,,0.00,VWS V14.01,2013-08-19 08:25:00,
2013-08-19 04:30:00,59.9,58.5,30.06,SSE,159,0.0,2.8,95,0.00,,,0.00,VWS V14.01,2013-08-19 08:30:00,
2013-08-19 04:35:00,59.6,58.2,30.07,SSE,159,0.0,2.8,95,0.00,,,0.00,VWS V14.01,2013-08-19 08:35:00,
2013-08-19 04:40:00,59.4,58.0,30.06,SSW,207,0.0,2.8,95,0.00,,,0.00,VWS V14.01,2013-08-19 08:40:00,
2013-08-19 04:45:00,59.5,58.4,30.06,SSW,204,0.0,2.8,96,0.00,,,0.00,VWS V14.01,2013-08-19 08:45:00,
2013-08-19 04:50:00,59.4,58.3,30.06,SSW,200,0.0,2.8,96,0.00,,,0.00,VWS V14.01,2013-08-19 08:50:00,
2013-08-19 04:55:00,59.4,58.3,30.06,SE,142,1.4,2.8,96,0.00,,,0.00,VWS V14.01,2013-08-19 08:55:00,
2013-08-19 05:00:00,59.5,58.4,30.06,SE,128,1.4,2.8,96,0.00,,,0.00,VWS V14.01,2013-08-19 09:00:00,
2013-08-19 05:05:00,59.7,58.6,30.06,SSE,163,1.4,4.2,96,0.00,,,0.00,VWS V14.01,2013-08-19 09:05:00,
2013-08-19 05:10:00,59.6,58.2,30.06,SE,146,1.4,4.2,95,0.00,,,0.00,VWS V14.01,2013-08-19 09:10:00,
2013-08-19 05:15:00,59.4,58.0,30.06,SSE,158,0.0,4.2,95,0.00,,,0.00,VWS V14.01,2013-08-19 09:15:00,
2013-08-19 05:20:00,59.2,58.1,30.06,SSE,162,0.0,4.2,96,0.00,,,0.00,VWS V14.01,2013-08-19 09:20:00,
2013-08-19 05:25:00,59.0,57.6,30.06,South,188,0.0,4.2,95,0.00,,,0.00,VWS V14.01,2013-08-19 09:25:00,
2013-08-19 05:30:00,58.9,57.5,30.06,South,188,0.0,4.2,95,0.00,,,0.00,VWS V14.01,2013-08-19 09:30:00,
2013-08-19 05:35:00,58.8,57.4,30.06,South,187,0.0,4.2,95,0.00,,,0.00,VWS V14.01,2013-08-19 09:35:00,
2013-08-19 05:40:00,58.7,57.6,30.06,South,186,0.0,4.2,96,0.00,,,0.00,VWS V14.01,2013-08-19 09:40:00,
2013-08-19 05:45:00,58.9,57.8,30.06,South,172,0.0,4.2,96,0.00,,,0.00,VWS V14.01,2013-08-19 09:45:00,
2013-08-19 05:50:00,58.8,57.7,30.06,SE,143,0.0,4.2,96,0.00,,,0.00,VWS V14.01,2013-08-19 09:50:00,
2013-08-19 05:55:00,58.7,57.6,30.06,SE,142,0.0,4.2,96,0.00,,,0.00,VWS V14.01,2013-08-19 09:55:00,
2013-08-19 06:00:00,58.6,57.5,30.06,SSE,165,0.0,0.0,96,0.00,,,0.00,VWS V14.01,2013-08-19 10:00:00,
2013-08-19 06:05:00,58.6,57.5,30.07,SSE,165,0.0,0.0,96,0.00,,,0.00,VWS V14.01,2013-08-19 10:05:00,
2013-08-19 06:10:00,58.7,57.6,30.06,SE,133,1.4,1.4,96,0.00,,,0.00,VWS V14.01,2013-08-19 10:10:00,
2013-08-19 06:15:00,58.7,57.6,30.07,SSE,153,0.0,1.4,96,0.00,,,0.00,VWS V14.01,2013-08-19 10:15:00,
2013-08-19 06:20:00,58.8,57.7,30.07,SSW,205,0.0,1.4,96,0.00,,,0.00,VWS V14.01,2013-08-19 10:20:00,
2013-08-19 06:25:00,58.8,57.7,30.07,SSW,205,0.0,1.4,96,0.00,,,0.00,VWS V14.01,2013-08-19 10:25:00,
2013-08-19 06:30:00,58.7,57.6,30.07,SSW,205,0.0,1.4,96,0.00,,,0.00,VWS V14.01,2013-08-19 10:30:00,
2013-08-19 06:35:00,58.7,57.6,30.07,SSW,205,0.0,1.4,96,0.00,,,0.00,VWS V14.01,2013-08-19 10:35:00,
2013-08-19 06:40:00,58.4,57.3,30.07,SSW,205,0.0,1.4,96,0.00,,,0.00,VWS V14.01,2013-08-19 10:40:00,
2013-08-19 06:45:00,58.1,57.0,30.07,SSE,165,1.4,2.8,96,0.00,,,0.00,VWS V14.01,2013-08-19 10:45:00,
2013-08-19 06:50:00,57.7,56.3,30.07,SSE,165,0.0,2.8,95,0.00,,,0.00,VWS V14.01,2013-08-19 10:50:00,
2013-08-19 06:55:00,57.4,56.3,30.07,SSE,165,0.0,2.8,96,0.00,,,0.00,VWS V14.01,2013-08-19 10:55:00,
2013-08-19 07:00:00,57.3,56.2,30.07,SSE,165,0.0,2.8,96,0.00,,,0.00,VWS V14.01,2013-08-19 11:00:00,
2013-08-19 07:05:00,57.5,56.4,30.07,SSE,165,0.0,2.8,96,0.00,,,0.00,VWS V14.01,2013-08-19 11:05:00,
2013-08-19 07:10:00,57.3,56.2,30.07,East,82,2.8,2.8,96,0.00,,,0.00,VWS V14.01,2013-08-19 11:10:00,
2013-08-19 07:15:00,58.9,58.0,30.07,SE,135,0.0,4.2,97,0.00,,,0.00,VWS V14.01,2013-08-19 11:15:00,
2013-08-19 07:20:00,58.9,58.0,30.07,SE,135,0.0,4.2,97,0.00,,,0.00,VWS V14.01,2013-08-19 11:20:00,
2013-08-19 07:25:00,59.2,58.3,30.07,SE,136,0.0,4.2,97,0.00,,,0.00,VWS V14.01,2013-08-19 11:25:00,
2013-08-19 07:30:00,59.5,58.4,30.07,SE,145,0.0,4.2,96,0.00,,,0.00,VWS V14.01,2013-08-19 11:30:00,
2013-08-19 07:35:00,60.3,59.2,30.07,SE,136,1.4,4.2,96,0.00,,,0.00,VWS V14.01,2013-08-19 11:35:00,
2013-08-19 07:40:00,61.0,59.9,30.07,SSE,162,1.4,4.2,96,0.00,,,0.00,VWS V14.01,2013-08-19 11:40:00,
2013-08-19 07:45:00,61.6,60.2,30.07,SSE,154,1.4,4.2,95,0.00,,,0.00,VWS V14.01,2013-08-19 11:45:00,
2013-08-19 07:50:00,62.2,60.2,30.07,SSE,161,1.4,4.2,93,0.00,,,0.00,VWS V14.01,2013-08-19 11:50:00,
2013-08-19 07:55:00,62.6,60.2,30.06,SE,135,0.0,4.2,92,0.00,,,0.00,VWS V14.01,2013-08-19 11:55:00,
2013-08-19 08:00:00,63.2,60.5,30.07,SSE,148,1.4,1.4,91,0.00,,,0.00,VWS V14.01,2013-08-19 12:00:00,
2013-08-19 08:05:00,63.6,60.9,30.07,SSE,158,1.4,2.8,91,0.00,,,0.00,VWS V14.01,2013-08-19 12:05:00,
2013-08-19 08:10:00,63.9,60.9,30.07,ESE,111,4.2,4.2,90,0.00,,,0.00,VWS V14.01,2013-08-19 12:10:00,
2013-08-19 08:15:00,64.2,61.2,30.07,SE,126,4.2,4.2,90,0.00,,,0.00,VWS V14.01,2013-08-19 12:15:00,
2013-08-19 08:20:00,64.6,61.6,30.06,South,173,2.8,7.0,90,0.00,,,0.00,VWS V14.01,2013-08-19 12:20:00,
2013-08-19 08:25:00,65.3,62.3,30.06,SE,139,0.0,7.0,90,0.00,,,0.00,VWS V14.01,2013-08-19 12:25:00,
2013-08-19 08:30:00,66.1,62.5,30.06,SSE,158,1.4,7.0,88,0.00,,,0.00,VWS V14.01,2013-08-19 12:30:00,
2013-08-19 08:35:00,67.0,63.0,30.06,SSE,163,2.8,7.0,87,0.00,,,0.00,VWS V14.01,2013-08-19 12:35:00,
2013-08-19 08:40:00,67.8,63.1,30.06,SSE,164,0.0,7.0,85,0.00,,,0.00,VWS V14.01,2013-08-19 12:40:00,
2013-08-19 08:45:00,68.7,63.7,30.06,SSE,153,0.0,7.0,84,0.00,,,0.00,VWS V14.01,2013-08-19 12:45:00,
2013-08-19 08:50:00,69.7,64.0,30.06,SSE,154,0.0,7.0,82,0.00,,,0.00,VWS V14.01,2013-08-19 12:50:00,
2013-08-19 08:55:00,69.8,63.7,30.06,SW,235,0.0,7.0,81,0.00,,,0.00,VWS V14.01,2013-08-19 12:55:00,
2013-08-19 09:00:00,70.3,64.2,30.06,West,260,0.0,7.0,81,0.00,,,0.00,VWS V14.01,2013-08-19 13:00:00,
2013-08-19 09:05:00,70.9,63.3,30.05,SW,233,5.6,8.4,77,0.00,,,0.00,VWS V14.01,2013-08-19 13:05:00,
2013-08-19 09:10:00,70.4,63.9,30.05,WSW,250,1.4,8.4,80,0.00,,,0.00,VWS V14.01,2013-08-19 13:10:00,
2013-08-19 09:15:00,71.0,64.2,30.05,South,174,2.8,8.4,79,0.00,,,0.00,VWS V14.01,2013-08-19 13:15:00,
2013-08-19 09:20:00,71.0,64.2,30.05,SW,229,4.2,8.4,79,0.00,,,0.00,VWS V14.01,2013-08-19 13:20:00,
2013-08-19 09:25:00,70.7,63.9,30.05,SW,217,1.4,9.8,79,0.00,,,0.00,VWS V14.01,2013-08-19 13:25:00,
2013-08-19 09:30:00,71.1,63.9,30.05,WSW,253,2.8,9.8,78,0.00,,,0.00,VWS V14.01,2013-08-19 13:30:00,
2013-08-19 09:35:00,71.4,64.2,30.05,SW,235,2.8,9.8,78,0.00,,,0.00,VWS V14.01,2013-08-19 13:35:00,
2013-08-19 09:40:00,71.6,64.0,30.05,SW,235,1.4,11.2,77,0.00,,,0.00,VWS V14.01,2013-08-19 13:40:00,
2013-08-19 09:45:00,72.4,64.8,30.05,SW,236,1.4,11.2,77,0.00,,,0.00,VWS V14.01,2013-08-19 13:45:00,
2013-08-19 09:50:00,72.9,64.9,30.05,SW,221,0.0,11.2,76,0.00,,,0.00,VWS V14.01,2013-08-19 13:50:00,
2013-08-19 09:55:00,73.3,64.9,30.05,SW,214,2.8,12.6,75,0.00,,,0.00,VWS V14.01,2013-08-19 13:55:00,
2013-08-19 10:00:00,73.7,64.9,30.05,SW,231,4.2,4.2,74,0.00,,,0.00,VWS V14.01,2013-08-19 14:00:00,
2013-08-19 10:05:00,74.3,65.1,30.05,SW,226,2.8,5.6,73,0.00,,,0.00,VWS V14.01,2013-08-19 14:05:00,
2013-08-19 10:10:00,74.8,65.2,30.05,SSE,165,4.2,7.0,72,0.00,,,0.00,VWS V14.01,2013-08-19 14:10:00,
2013-08-19 10:15:00,75.5,65.4,30.05,WSW,245,4.2,9.8,71,0.00,,,0.00,VWS V14.01,2013-08-19 14:15:00,
2013-08-19 10:20:00,75.9,65.4,30.05,SSE,153,2.8,9.8,70,0.00,,,0.00,VWS V14.01,2013-08-19 14:20:00,
2013-08-19 10:25:00,76.0,65.1,30.05,SW,231,1.4,9.8,69,0.00,,,0.00,VWS V14.01,2013-08-19 14:25:00,
2013-08-19 10:30:00,76.1,64.4,30.05,SW,228,1.4,11.2,67,0.00,,,0.00,VWS V14.01,2013-08-19 14:30:00,
2013-08-19 10:35:00,76.4,64.6,30.05,SSW,203,2.8,14.0,67,0.00,,,0.00,VWS V14.01,2013-08-19 14:35:00,
2013-08-19 10:40:00,76.4,65.5,30.05,WSW,238,4.2,15.4,69,0.00,,,0.00,VWS V14.01,2013-08-19 14:40:00,
2013-08-19 10:45:00,75.9,65.0,30.06,West,262,2.8,15.4,69,0.00,,,0.00,VWS V14.01,2013-08-19 14:45:00,
2013-08-19 10:50:00,76.8,65.0,30.06,SW,214,5.6,15.4,67,0.00,,,0.00,VWS V14.01,2013-08-19 14:50:00,
2013-08-19 10:55:00,77.5,64.8,30.06,SW,231,8.4,15.4,65,0.00,,,0.00,VWS V14.01,2013-08-19 14:55:00,
2013-08-19 11:00:00,77.4,65.2,30.06,WSW,249,5.6,15.4,66,0.00,,,0.00,VWS V14.01,2013-08-19 15:00:00,
2013-08-19 11:05:00,77.6,65.3,30.06,West,271,2.8,15.4,66,0.00,,,0.00,VWS V14.01,2013-08-19 15:05:00,
2013-08-19 11:10:00,77.6,64.0,30.06,SSW,197,4.2,15.4,63,0.00,,,0.00,VWS V14.01,2013-08-19 15:10:00,
2013-08-19 11:15:00,76.9,62.9,30.06,WNW,285,8.4,16.8,62,0.00,,,0.00,VWS V14.01,2013-08-19 15:15:00,
2013-08-19 11:20:00,76.2,63.6,30.06,West,266,5.6,16.8,65,0.00,,,0.00,VWS V14.01,2013-08-19 15:20:00,
2013-08-19 11:25:00,75.5,62.9,30.06,WSW,257,4.2,18.2,65,0.00,,,0.00,VWS V14.01,2013-08-19 15:25:00,
2013-08-19 11:30:00,75.7,64.0,30.06,West,269,2.8,18.2,67,0.00,,,0.00,VWS V14.01,2013-08-19 15:30:00,
2013-08-19 11:35:00,76.6,64.0,30.05,WSW,238,2.8,18.2,65,0.00,,,0.00,VWS V14.01,2013-08-19 15:35:00,
2013-08-19 11:40:00,76.3,63.2,30.05,WSW,256,5.6,18.2,64,0.00,,,0.00,VWS V14.01,2013-08-19 15:40:00,
2013-08-19 11:45:00,75.9,63.3,30.05,WSW,238,5.6,18.2,65,0.00,,,0.00,VWS V14.01,2013-08-19 15:45:00,
2013-08-19 11:50:00,76.8,64.2,30.05,SSW,193,11.2,18.2,65,0.00,,,0.00,VWS V14.01,2013-08-19 15:50:00,
2013-08-19 11:55:00,77.5,64.4,30.04,SW,219,5.6,18.2,64,0.00,,,0.00,VWS V14.01,2013-08-19 15:55:00,
2013-08-19 12:00:00,78.1,63.6,30.04,SW,235,7.0,11.2,61,0.00,,,0.00,VWS V14.01,2013-08-19 16:00:00,
2013-08-19 12:05:00,78.1,63.6,30.03,WSW,257,7.0,15.4,61,0.00,,,0.00,VWS V14.01,2013-08-19 16:05:00,
2013-08-19 12:10:00,78.9,63.8,30.03,WSW,254,8.4,15.4,60,0.00,,,0.00,VWS V14.01,2013-08-19 16:10:00,
2013-08-19 12:15:00,78.7,63.2,30.03,WSW,238,9.8,15.4,59,0.00,,,0.00,VWS V14.01,2013-08-19 16:15:00,
2013-08-19 12:20:00,78.2,64.1,30.03,SW,228,7.0,19.6,62,0.00,,,0.00,VWS V14.01,2013-08-19 16:20:00,
2013-08-19 12:25:00,79.2,64.1,30.03,SSE,166,4.2,19.6,60,0.00,,,0.00,VWS V14.01,2013-08-19 16:25:00,
2013-08-19 12:30:00,79.2,63.2,30.02,SSW,198,4.2,19.6,58,0.00,,,0.00,VWS V14.01,2013-08-19 16:30:00,
2013-08-19 12:35:00,79.7,64.1,30.02,West,279,2.8,19.6,59,0.00,,,0.00,VWS V14.01,2013-08-19 16:35:00,
2013-08-19 12:40:00,80.3,63.7,30.02,SW,225,7.0,19.6,57,0.00,,,0.00,VWS V14.01,2013-08-19 16:40:00,
2013-08-19 12:45:00,80.8,64.2,30.02,SSW,200,5.6,19.6,57,0.00,,,0.00,VWS V14.01,2013-08-19 16:45:00,
2013-08-19 12:50:00,80.7,63.0,30.01,South,186,8.4,19.6,55,0.00,,,0.00,VWS V14.01,2013-08-19 16:50:00,
2013-08-19 12:55:00,80.6,63.0,30.02,WSW,248,1.4,19.6,55,0.00,,,0.00,VWS V14.01,2013-08-19 16:55:00,
2013-08-19 13:00:00,80.8,63.1,30.01,SW,225,5.6,19.6,55,0.00,,,0.00,VWS V14.01,2013-08-19 17:00:00,
2013-08-19 13:05:00,79.7,62.1,30.01,West,281,2.8,21.0,55,0.00,,,0.00,VWS V14.01,2013-08-19 17:05:00,
2013-08-19 13:10:00,79.5,64.4,30.01,SW,225,5.6,21.0,60,0.00,,,0.00,VWS V14.01,2013-08-19 17:10:00,
2013-08-19 13:15:00,80.0,63.9,30.01,West,259,7.0,21.0,58,0.00,,,0.00,VWS V14.01,2013-08-19 17:15:00,
2013-08-19 13:20:00,80.0,63.4,30.00,SSW,195,9.8,21.0,57,0.00,,,0.00,VWS V14.01,2013-08-19 17:20:00,
2013-08-19 13:25:00,80.7,63.0,30.00,SSW,212,14.0,21.0,55,0.00,,,0.00,VWS V14.01,2013-08-19 17:25:00,
2013-08-19 13:30:00,79.6,62.5,30.00,WSW,253,11.2,21.0,56,0.00,,,0.00,VWS V14.01,2013-08-19 17:30:00,
2013-08-19 13:35:00,80.3,63.2,30.00,SSE,163,7.0,21.0,56,0.00,,,0.00,VWS V14.01,2013-08-19 17:35:00,
2013-08-19 13:40:00,81.0,63.8,30.00,SW,226,11.2,21.0,56,0.00,,,0.00,VWS V14.01,2013-08-19 17:40:00,
2013-08-19 13:45:00,81.2,62.5,30.00,South,187,12.6,25.2,53,0.00,,,0.00,VWS V14.01,2013-08-19 17:45:00,
2013-08-19 13:50:00,81.1,62.9,30.00,West,279,2.8,25.2,54,0.00,,,0.00,VWS V14.01,2013-08-19 17:50:00,
2013-08-19 13:55:00,81.1,62.4,30.00,WSW,242,12.6,25.2,53,0.00,,,0.00,VWS V14.01,2013-08-19 17:55:00,
2013-08-19 14:00:00,80.8,62.6,30.00,WSW,245,5.6,7.0,54,0.00,,,0.00,VWS V14.01,2013-08-19 18:00:00,
2013-08-19 14:05:00,80.9,63.2,30.00,SW,235,14.0,16.8,55,0.00,,,0.00,VWS V14.01,2013-08-19 18:05:00,
2013-08-19 14:10:00,81.1,62.9,30.00,WSW,246,14.0,19.6,54,0.00,,,0.00,VWS V14.01,2013-08-19 18:10:00,
2013-08-19 14:15:00,81.1,62.9,30.00,SSW,198,5.6,19.6,54,0.00,,,0.00,VWS V14.01,2013-08-19 18:15:00,
2013-08-19 14:20:00,81.4,63.7,30.00,WNW,284,12.6,19.6,55,0.00,,,0.00,VWS V14.01,2013-08-19 18:20:00,
2013-08-19 14:25:00,81.1,61.8,30.00,WSW,238,9.8,21.0,52,0.00,,,0.00,VWS V14.01,2013-08-19 18:25:00,
2013-08-19 14:30:00,80.6,62.4,30.00,SSW,210,11.2,21.0,54,0.00,,,0.00,VWS V14.01,2013-08-19 18:30:00,
2013-08-19 14:35:00,80.6,63.0,29.99,South,176,5.6,22.4,55,0.00,,,0.00,VWS V14.01,2013-08-19 18:35:00,
2013-08-19 14:40:00,80.9,62.7,29.99,West,278,5.6,22.4,54,0.00,,,0.00,VWS V14.01,2013-08-19 18:40:00,
2013-08-19 14:45:00,81.3,63.1,29.99,SSW,200,7.0,22.4,54,0.00,,,0.00,VWS V14.01,2013-08-19 18:45:00,
2013-08-19 14:50:00,81.4,63.2,29.99,West,274,4.2,22.4,54,0.00,,,0.00,VWS V14.01,2013-08-19 18:50:00,
2013-08-19 14:55:00,81.3,62.5,29.99,NW,315,4.2,22.4,53,0.00,,,0.00,VWS V14.01,2013-08-19 18:55:00,
2013-08-19 15:00:00,81.5,62.7,29.99,West,262,5.6,22.4,53,0.00,,,0.00,VWS V14.01,2013-08-19 19:00:00,
2013-08-19 15:05:00,81.0,62.8,29.99,SSW,203,12.6,23.8,54,0.00,,,0.00,VWS V14.01,2013-08-19 19:05:00,
2013-08-19 15:10:00,80.8,62.6,29.99,SW,226,9.8,23.8,54,0.00,,,0.00,VWS V14.01,2013-08-19 19:10:00,
2013-08-19 15:15:00,80.8,62.6,29.99,WSW,238,5.6,23.8,54,0.00,,,0.00,VWS V14.01,2013-08-19 19:15:00,
2013-08-19 15:20:00,80.8,62.6,29.99,WSW,238,9.8,23.8,54,0.00,,,0.00,VWS V14.01,2013-08-19 19:20:00,
2013-08-19 15:25:00,80.8,62.1,29.99,WSW,242,11.2,23.8,53,0.00,,,0.00,VWS V14.01,2013-08-19 19:25:00,
2013-08-19 15:30:00,81.0,62.3,29.99,WSW,240,8.4,23.8,53,0.00,,,0.00,VWS V14.01,2013-08-19 19:30:00,
2013-08-19 15:35:00,81.0,62.8,30.00,SW,229,4.2,23.8,54,0.00,,,0.00,VWS V14.01,2013-08-19 19:35:00,
2013-08-19 15:40:00,80.7,62.5,29.99,SW,229,5.6,23.8,54,0.00,,,0.00,VWS V14.01,2013-08-19 19:40:00,
2013-08-19 15:45:00,80.8,62.1,29.99,SSE,149,7.0,23.8,53,0.00,,,0.00,VWS V14.01,2013-08-19 19:45:00,
2013-08-19 15:50:00,80.7,62.0,29.99,SSW,197,4.2,23.8,53,0.00,,,0.00,VWS V14.01,2013-08-19 19:50:00,
2013-08-19 15:55:00,80.6,62.4,29.99,WSW,240,8.4,23.8,54,0.00,,,0.00,VWS V14.01,2013-08-19 19:55:00,
2013-08-19 16:00:00,80.4,62.2,29.99,South,182,12.6,12.6,54,0.00,,,0.00,VWS V14.01,2013-08-19 20:00:00,
2013-08-19 16:05:00,80.0,61.9,29.99,WSW,248,9.8,21.0,54,0.00,,,0.00,VWS V14.01,2013-08-19 20:05:00,
2013-08-19 16:10:00,80.3,63.2,29.99,WSW,255,11.2,23.8,56,0.00,,,0.00,VWS V14.01,2013-08-19 20:10:00,
2013-08-19 16:15:00,80.3,62.2,29.99,West,265,4.2,23.8,54,0.00,,,0.00,VWS V14.01,2013-08-19 20:15:00,
2013-08-19 16:20:00,80.4,61.7,29.99,WSW,253,7.0,23.8,53,0.00,,,0.00,VWS V14.01,2013-08-19 20:20:00,
2013-08-19 16:25:00,80.7,63.0,29.99,West,260,4.2,23.8,55,0.00,,,0.00,VWS V14.01,2013-08-19 20:25:00,
2013-08-19 16:30:00,80.8,62.1,29.99,SW,219,7.0,23.8,53,0.00,,,0.00,VWS V14.01,2013-08-19 20:30:00,
2013-08-19 16:35:00,81.0,62.3,29.99,WSW,240,19.6,23.8,53,0.00,,,0.00,VWS V14.01,2013-08-19 20:35:00,
2013-08-19 16:40:00,80.4,61.7,29.99,WNW,300,8.4,23.8,53,0.00,,,0.00,VWS V14.01,2013-08-19 20:40:00,
2013-08-19 16:45:00,79.8,61.7,29.99,West,270,12.6,25.2,54,0.00,,,0.00,VWS V14.01,2013-08-19 20:45:00,
2013-08-19 16:50:00,79.6,61.5,29.99,SW,226,5.6,25.2,54,0.00,,,0.00,VWS V14.01,2013-08-19 20:50:00,
2013-08-19 16:55:00,79.3,61.2,29.98,SW,229,7.0,25.2,54,0.00,,,0.00,VWS V14.01,2013-08-19 20:55:00,
2013-08-19 17:00:00,79.5,61.4,29.99,SSW,203,4.2,25.2,54,0.00,,,0.00,VWS V14.01,2013-08-19 21:00:00,
2013-08-19 17:05:00,79.2,61.1,29.99,West,262,8.4,25.2,54,0.00,,,0.00,VWS V14.01,2013-08-19 21:05:00,
2013-08-19 17:10:00,78.7,61.2,29.99,WSW,238,14.0,25.2,55,0.00,,,0.00,VWS V14.01,2013-08-19 21:10:00,
2013-08-19 17:15:00,78.7,61.7,29.99,SSW,197,2.8,25.2,56,0.00,,,0.00,VWS V14.01,2013-08-19 21:15:00,
2013-08-19 17:20:00,79.2,61.1,29.99,SSW,195,12.6,25.2,54,0.00,,,0.00,VWS V14.01,2013-08-19 21:20:00,
2013-08-19 17:25:00,79.2,61.1,29.99,SW,228,7.0,25.2,54,0.00,,,0.00,VWS V14.01,2013-08-19 21:25:00,
2013-08-19 17:30:00,79.9,61.8,29.99,SSW,213,4.2,25.2,54,0.00,,,0.00,VWS V14.01,2013-08-19 21:30:00,
2013-08-19 17:35:00,79.8,61.7,29.99,North,349,5.6,25.2,54,0.00,,,0.00,VWS V14.01,2013-08-19 21:35:00,
2013-08-19 17:40:00,79.7,62.1,29.99,WSW,255,9.8,25.2,55,0.00,,,0.00,VWS V14.01,2013-08-19 21:40:00,
2013-08-19 17:45:00,79.7,62.6,29.99,SSW,201,5.6,25.2,56,0.00,,,0.00,VWS V14.01,2013-08-19 21:45:00,
2013-08-19 17:50:00,79.0,62.0,29.99,SW,225,5.6,25.2,56,0.00,,,0.00,VWS V14.01,2013-08-19 21:50:00,
2013-08-19 17:55:00,78.1,61.6,29.99,WSW,241,7.0,25.2,57,0.00,,,0.00,VWS V14.01,2013-08-19 21:55:00,
2013-08-19 18:00:00,77.5,61.6,29.99,SSW,213,4.2,7.0,58,0.00,,,0.00,VWS V14.01,2013-08-19 22:00:00,
2013-08-19 18:05:00,77.2,61.8,29.99,SW,227,5.6,14.0,59,0.00,,,0.00,VWS V14.01,2013-08-19 22:05:00,
2013-08-19 18:10:00,77.3,61.9,29.99,SSW,213,15.4,16.8,59,0.00,,,0.00,VWS V14.01,2013-08-19 22:10:00,
2013-08-19 18:15:00,77.7,62.2,29.99,SSW,205,12.6,19.6,59,0.00,,,0.00,VWS V14.01,2013-08-19 22:15:00,
2013-08-19 18:20:00,78.3,61.8,29.98,WNW,283,21.0,26.6,57,0.00,,,0.00,VWS V14.01,2013-08-19 22:20:00,
2013-08-19 18:25:00,78.2,62.2,29.98,West,266,7.0,26.6,58,0.00,,,0.00,VWS V14.01,2013-08-19 22:25:00,
2013-08-19 18:30:00,78.2,62.2,29.98,WSW,243,8.4,26.6,58,0.00,,,0.00,VWS V14.01,2013-08-19 22:30:00,
2013-08-19 18:35:00,77.8,61.9,29.98,SW,221,8.4,26.6,58,0.00,,,0.00,VWS V14.01,2013-08-19 22:35:00,
2013-08-19 18:40:00,77.7,61.8,29.98,WSW,238,12.6,26.6,58,0.00,,,0.00,VWS V14.01,2013-08-19 22:40:00,
2013-08-19 18:45:00,77.6,62.2,29.98,SSW,203,4.2,26.6,59,0.00,,,0.00,VWS V14.01,2013-08-19 22:45:00,
2013-08-19 18:50:00,77.5,62.1,29.98,WSW,238,14.0,26.6,59,0.00,,,0.00,VWS V14.01,2013-08-19 22:50:00,
2013-08-19 18:55:00,77.3,62.3,29.98,SW,218,4.2,26.6,60,0.00,,,0.00,VWS V14.01,2013-08-19 22:55:00,
2013-08-19 19:00:00,77.1,62.2,29.98,WNW,287,8.4,26.6,60,0.00,,,0.00,VWS V14.01,2013-08-19 23:00:00,
2013-08-19 19:05:00,76.8,61.9,29.98,WSW,238,8.4,26.6,60,0.00,,,0.00,VWS V14.01,2013-08-19 23:05:00,
2013-08-19 19:10:00,76.7,61.8,29.98,SW,235,9.8,26.6,60,0.00,,,0.00,VWS V14.01,2013-08-19 23:10:00,
2013-08-19 19:15:00,76.1,61.7,29.98,SW,229,16.8,26.6,61,0.00,,,0.00,VWS V14.01,2013-08-19 23:15:00,
2013-08-19 19:20:00,75.7,61.3,29.98,SSW,194,5.6,26.6,61,0.00,,,0.00,VWS V14.01,2013-08-19 23:20:00,
2013-08-19 19:25:00,75.4,61.5,29.98,NW,324,14.0,26.6,62,0.00,,,0.00,VWS V14.01,2013-08-19 23:25:00,
2013-08-19 19:30:00,75.1,61.7,29.98,West,277,11.2,32.2,63,0.00,,,0.00,VWS V14.01,2013-08-19 23:30:00,
2013-08-19 19:35:00,74.9,61.9,29.98,SSW,193,15.4,32.2,64,0.00,,,0.00,VWS V14.01,2013-08-19 23:35:00,
2013-08-19 19:40:00,74.7,61.7,29.98,WSW,255,8.4,32.2,64,0.00,,,0.00,VWS V14.01,2013-08-19 23:40:00,
2013-08-19 19:45:00,74.5,62.0,29.98,WSW,242,12.6,32.2,65,0.00,,,0.00,VWS V14.01,2013-08-19 23:45:00,
2013-08-19 19:50:00,74.4,61.9,29.98,West,267,8.4,32.2,65,0.00,,,0.00,VWS V14.01,2013-08-19 23:50:00,
2013-08-19 19:55:00,74.2,61.7,29.98,West,259,14.0,32.2,65,0.00,,,0.00,VWS V14.01,2013-08-19 23:55:00,
2013-08-19 20:00:00,74.0,61.9,29.98,WSW,243,7.0,7.0,66,0.00,,,0.00,VWS V14.01,2013-08-20 00:00:00,
2013-08-19 20:05:00,73.8,61.7,29.98,West,269,16.8,19.6,66,0.00,,,0.00,VWS V14.01,2013-08-20 00:05:00,
2013-08-19 20:10:00,73.7,61.7,29.98,SW,232,7.0,19.6,66,0.00,,,0.00,VWS V14.01,2013-08-20 00:10:00,
2013-08-19 20:15:00,73.5,61.9,29.98,West,259,12.6,21.0,67,0.00,,,0.00,VWS V14.01,2013-08-20 00:15:00,
2013-08-19 20:20:00,73.3,61.3,29.98,SW,226,14.0,21.0,66,0.00,,,0.00,VWS V14.01,2013-08-20 00:20:00,
2013-08-19 20:25:00,73.0,61.0,29.98,WSW,250,4.2,21.0,66,0.00,,,0.00,VWS V14.01,2013-08-20 00:25:00,
2013-08-19 20:30:00,72.9,60.9,29.98,SSW,210,8.4,21.0,66,0.00,,,0.00,VWS V14.01,2013-08-20 00:30:00,
2013-08-19 20:35:00,72.8,60.8,29.98,WSW,238,9.8,23.8,66,0.00,,,0.00,VWS V14.01,2013-08-20 00:35:00,
2013-08-19 20:40:00,72.6,61.0,29.98,WSW,251,5.6,28.0,67,0.00,,,0.00,VWS V14.01,2013-08-20 00:40:00,
2013-08-19 20:45:00,72.4,60.8,29.98,WSW,252,7.0,28.0,67,0.00,,,0.00,VWS V14.01,2013-08-20 00:45:00,
2013-08-19 20:50:00,72.2,60.7,29.98,WSW,243,16.8,28.0,67,0.00,,,0.00,VWS V14.01,2013-08-20 00:50:00,
2013-08-19 20:55:00,72.0,60.9,29.98,SSW,204,9.8,28.0,68,0.00,,,0.00,VWS V14.01,2013-08-20 00:55:00,
2013-08-19 21:00:00,71.8,60.7,29.98,WSW,242,7.0,28.0,68,0.00,,,0.00,VWS V14.01,2013-08-20 01:00:00,
2013-08-19 21:05:00,71.6,60.9,29.98,WSW,252,11.2,28.0,69,0.00,,,0.00,VWS V14.01,2013-08-20 01:05:00,
2013-08-19 21:10:00,71.4,60.7,29.98,West,259,7.0,28.0,69,0.00,,,0.00,VWS V14.01,2013-08-20 01:10:00,
2013-08-19 21:15:00,71.2,60.9,29.98,WSW,245,11.2,28.0,70,0.00,,,0.00,VWS V14.01,2013-08-20 01:15:00,
2013-08-19 21:20:00,71.1,60.8,29.98,West,270,7.0,28.0,70,0.00,,,0.00,VWS V14.01,2013-08-20 01:20:00,
2013-08-19 21:25:00,71.0,60.7,29.98,SW,236,7.0,28.0,70,0.00,,,0.00,VWS V14.01,2013-08-20 01:25:00,
2013-08-19 21:30:00,70.9,60.6,29.98,WSW,250,11.2,28.0,70,0.00,,,0.00,VWS V14.01,2013-08-20 01:30:00,
2013-08-19 21:35:00,70.9,61.0,29.98,WSW,243,16.8,29.4,71,0.00,,,0.00,VWS V14.01,2013-08-20 01:35:00,
2013-08-19 21:40:00,70.7,60.8,29.98,SSW,212,15.4,29.4,71,0.00,,,0.00,VWS V14.01,2013-08-20 01:40:00,
2013-08-19 21:45:00,70.7,60.8,29.98,West,271,4.2,29.4,71,0.00,,,0.00,VWS V14.01,2013-08-20 01:45:00,
2013-08-19 21:50:00,70.6,61.1,29.98,WSW,245,9.8,29.4,72,0.00,,,0.00,VWS V14.01,2013-08-20 01:50:00,
2013-08-19 21:55:00,70.6,61.1,29.98,SW,229,15.4,29.4,72,0.00,,,0.00,VWS V14.01,2013-08-20 01:55:00,
2013-08-19 22:00:00,70.5,61.0,29.98,WSW,243,12.6,14.0,72,0.00,,,0.00,VWS V14.01,2013-08-20 02:00:00,
2013-08-19 22:05:00,70.5,61.4,29.98,SSW,204,14.0,18.2,73,0.00,,,0.00,VWS V14.01,2013-08-20 02:05:00,
2013-08-19 22:10:00,70.5,61.4,29.98,WSW,250,11.2,21.0,73,0.00,,,0.00,VWS V14.01,2013-08-20 02:10:00,
2013-08-19 22:15:00,70.5,61.4,29.98,WSW,247,8.4,21.0,73,0.00,,,0.00,VWS V14.01,2013-08-20 02:15:00,
2013-08-19 22:20:00,70.4,61.3,29.98,WSW,250,5.6,23.8,73,0.00,,,0.00,VWS V14.01,2013-08-20 02:20:00,
2013-08-19 22:25:00,70.4,61.3,29.98,SW,223,9.8,25.2,73,0.00,,,0.00,VWS V14.01,2013-08-20 02:25:00,
2013-08-19 22:30:00,70.5,61.4,29.99,SW,228,14.0,25.2,73,0.00,,,0.00,VWS V14.01,2013-08-20 02:30:00,
2013-08-19 22:35:00,70.4,61.7,29.98,West,259,12.6,25.2,74,0.00,,,0.00,VWS V14.01,2013-08-20 02:35:00,
2013-08-19 22:40:00,70.4,61.7,29.98,WSW,252,5.6,25.2,74,0.00,,,0.00,VWS V14.01,2013-08-20 02:40:00,
2013-08-19 22:45:00,70.4,61.7,29.98,WSW,242,25.2,25.2,74,0.00,,,0.00,VWS V14.01,2013-08-20 02:45:00,
2013-08-19 22:50:00,70.3,61.6,29.98,ESE,110,7.0,25.2,74,0.00,,,0.00,VWS V14.01,2013-08-20 02:50:00,
2013-08-19 22:55:00,70.3,61.6,29.98,SSW,200,12.6,25.2,74,0.00,,,0.00,VWS V14.01,2013-08-20 02:55:00,
2013-08-19 23:00:00,70.4,61.7,29.98,WSW,246,7.0,25.2,74,0.00,,,0.00,VWS V14.01,2013-08-20 03:00:00,
2013-08-19 23:05:00,70.3,62.0,29.98,WSW,257,14.0,25.2,75,0.00,,,0.00,VWS V14.01,2013-08-20 03:05:00,
2013-08-19 23:10:00,70.3,62.0,29.98,South,188,8.4,28.0,75,0.00,,,0.00,VWS V14.01,2013-08-20 03:10:00,
2013-08-19 23:15:00,70.2,62.3,29.98,NNW,330,5.6,28.0,76,0.00,,,0.00,VWS V14.01,2013-08-20 03:15:00,
2013-08-19 23:20:00,70.2,62.3,29.98,West,263,4.2,28.0,76,0.00,,,0.00,VWS V14.01,2013-08-20 03:20:00,
2013-08-19 23:25:00,70.1,62.2,29.98,SW,226,12.6,28.0,76,0.00,,,0.00,VWS V14.01,2013-08-20 03:25:00,
2013-08-19 23:30:00,70.1,62.2,29.98,SW,222,7.0,28.0,76,0.00,,,0.00,VWS V14.01,2013-08-20 03:30:00,
2013-08-19 23:35:00,70.1,62.6,29.98,WSW,257,8.4,28.0,77,0.00,,,0.00,VWS V14.01,2013-08-20 03:35:00,
2013-08-19 23:40:00,70.0,62.5,29.98,SW,231,14.0,28.0,77,0.00,,,0.00,VWS V14.01,2013-08-20 03:40:00,
2013-08-19 23:45:00,70.0,62.8,29.98,SSW,207,7.0,28.0,78,0.00,,,0.00,VWS V14.01,2013-08-20 03:45:00,
2013-08-19 23:50:00,69.9,62.7,29.98,SW,233,16.8,28.0,78,0.00,,,0.00,VWS V14.01,2013-08-20 03:50:00,
2013-08-19 23:55:00,69.9,62.7,29.98,SW,235,7.0,28.0,78,0.00,,,0.00,VWS V14.01,2013-08-20 03:55:00,